SCP
0 0 0 0 0 0 0 0 0 0 0 0 0 0 0 0 0 0 0 0 1 1 1 2 3 5 7 8 7 7 6 6 5 5 5 5 4 3 2 2 2 1 1 1 1 1 1 1 1
0 0 0 0 1 0 0 0 0 0 0 0 0 0 0 0 0 0 0 1 1 1 1 2 3 5 7 8 8 7 6 6 6 5 6 5 5 4 3 2 2 2 2 1 1 1 1 1 1
0 0 1 1 0 0 0 0 0 0 0 0 0 0 0 0 0 0 0 1 1 1 2 2 3 5 8 8 8 7 6 6 5 6 6 6 6 5 4 3 3 2 2 2 2 2 2 2 1
0 0 1 1 0 0 0 0 0 0 0 0 0 0 0 0 0 0 1 1 1 2 2 2 3 5 8 9 9 7 6 5 5 5 6 7 7 6 4 4 3 3 3 3 3 3 2 2 2
0 0 1 1 0 0 0 0 0 0 0 0 0 0 0 0 0 1 1 1 2 2 3 3 3 4 7 10 9 7 6 5 5 5 6 7 7 6 5 4 4 4 4 3 3 3 3 2 2
0 0 0 0 0 0 0 0 0 0 0 0 0 0 0 0 1 1 1 2 2 2 2 2 2 3 6 8 9 7 6 5 5 5 6 6 6 6 5 5 4 4 4 4 4 4 3 2 2
0 0 0 0 0 0 0 0 0 0 0 0 0 0 0 0 1 1 2 2 2 2 2 2 2 3 4 6 7 6 5 5 4 5 5 5 6 6 5 4 4 4 4 4 4 3 3 2 2
0 0 0 0 0 0 0 0 0 0 0 0 0 0 0 0 1 1 2 2 2 2 2 2 2 3 3 4 4 5 4 4 4 4 4 5 5 5 5 4 3 3 3 3 3 3 3 2 2
0 0 0 0 0 0 0 0 0 0 0 0 0 0 0 0 1 2 2 3 2 2 2 2 3 3 3 4 4 4 4 4 4 5 4 4 5 5 4 3 2 2 2 3 2 2 2 2 2
0 0 0 0 0 0 0 0 0 0 0 0 0 0 0 0 1 2 2 3 3 3 2 2 3 3 3 4 4 5 5 5 5 5 5 4 4 4 3 2 2 1 1 1 1 1 1 1 1
0 0 0 0 0 0 0 0 0 0 0 0 0 0 0 0 0 1 2 3 3 3 2 2 2 3 3 4 4 4 4 4 5 4 4 4 3 2 2 1 1 1 1 1 1 1 0 0 0
0 0 0 0 0 0 0 0 0 0 0 0 0 0 0 0 0 1 2 3 4 4 3 2 2 2 3 3 4 4 3 3 3 3 3 2 2 2 1 1 1 0 0 0 0 0 0 0 0
0 0 0 0 0 0 0 0 0 0 0 0 0 0 0 0 0 1 1 2 4 4 3 3 2 2 2 3 3 3 2 2 2 2 2 2 2 2 2 1 1 0 0 0 0 0 0 0 0
0 0 0 0 0 0 0 0 0 0 0 0 0 0 0 0 0 1 1 2 3 3 3 3 2 2 2 2 2 2 2 2 2 2 2 2 2 2 2 1 1 0 0 0 0 0 0 0 0
0 0 0 0 0 0 0 0 0 0 0 0 0 0 0 0 0 0 1 1 2 2 3 2 2 2 2 2 2 2 2 2 2 2 1 1 1 1 1 1 1 0 0 0 0 0 0 0 0
0 0 0 0 0 0 0 0 0 0 0 0 0 0 0 0 0 0 0 0 1 2 2 2 2 2 2 2 2 2 2 1 2 2 2 1 1 1 1 1 1 1 0 0 0 0 0 0 0
0 0 0 0 0 0 0 0 0 0 0 0 0 0 0 0 0 0 0 0 0 1 1 1 1 1 2 2 2 2 2 1 2 2 2 1 1 1 1 1 1 1 0 0 0 0 0 0 0
0 0 0 0 0 0 0 0 0 0 0 0 0 0 0 0 0 0 0 0 0 0 0 1 1 1 1 2 2 2 2 1 1 2 1 1 1 1 1 1 1 1 1 0 0 0 0 0 0
0 0 0 0 0 0 0 0 0 0 0 0 0 0 0 0 0 0 0 0 0 0 0 0 1 1 1 1 2 2 1 1 1 1 1 1 1 1 1 1 1 1 1 0 0 0 0 0 0
0 0 0 0 0 0 0 0 0 0 0 0 0 0 0 0 0 0 0 0 0 0 0 0 0 1 1 1 1 1 1 1 1 1 1 1 1 1 1 1 1 1 1 0 0 0 0 0 0
0 0 0 0 0 0 0 0 0 0 0 0 0 0 0 0 0 0 0 0 0 0 0 0 0 1 1 1 1 1 1 1 1 1 1 1 1 0 0 0 1 1 1 0 0 0 0 0 0
0 0 0 0 0 0 0 0 0 0 0 0 0 0 0 0 0 0 0 0 0 0 0 0 0 0 1 1 1 1 0 0 0 0 0 1 1 0 0 0 0 1 1 0 0 0 0 0 0
0 0 0 0 0 0 0 0 0 0 0 0 0 0 0 0 0 0 0 0 0 0 0 0 0 0 0 0 0 0 0 0 0 0 0 0 0 0 0 0 0 1 1 1 0 0 0 0 0
0 0 0 0 0 0 0 0 0 0 0 0 0 0 0 0 0 0 0 0 0 0 0 0 0 0 0 0 0 0 0 0 0 0 0 0 0 0 0 0 0 0 1 1 0 0 0 0 0
0 0 0 0 0 0 0 0 0 0 0 0 0 0 0 0 0 0 0 0 0 0 0 0 0 0 0 0 0 0 0 0 0 0 0 0 0 0 0 0 0 0 0 0 0 0 0 0 0
0 0 0 0 0 0 0 0 0 0 0 0 0 0 0 0 0 0 0 0 0 0 0 0 0 0 0 0 0 0 0 0 0 0 0 0 0 0 0 0 0 0 0 0 0 0 0 0 0
0 0 0 0 0 0 0 0 0 0 0 0 0 0 0 0 0 0 0 0 0 0 0 0 0 0 0 0 0 0 0 0 0 0 0 0 0 0 0 0 0 0 0 0 0 0 0 0 0
0 0 0 0 0 0 0 0 0 0 0 0 0 0 0 0 0 0 0 0 0 0 0 0 0 0 0 0 0 0 0 0 0 0 0 0 0 0 0 0 0 0 0 0 0 0 0 0 0
0 0 0 0 0 0 0 0 0 0 0 0 0 0 0 0 0 0 0 0 0 0 0 0 0 0 0 0 0 0 0 0 0 0 0 0 0 0 0 0 0 0 0 0 0 0 0 0 0
0 0 0 0 0 0 0 0 0 0 0 0 0 0 0 0 0 0 0 0 0 0 0 0 0 0 0 0 0 0 0 0 0 0 0 0 0 0 0 0 0 0 0 0 0 0 0 0 0
Wind_Speed
6 3 2 4 6 4 3 4 2 1 1 0 1 3 4 3 3 2 1 1 1 3 3 3 5 7 7 7 7 7 7 7 8 8 8 9 9 9 9 9 9 9 9 10 11 11 11 11 11
2 1 4 5 4 1 5 4 3 3 2 1 2 2 2 0 0 0 1 1 2 3 2 2 5 7 7 8 8 7 7 7 7 7 8 8 9 9 9 9 8 9 9 10 11 10 10 11 11
1 3 5 4 3 6 5 2 3 1 0 1 1 2 1 0 1 1 1 1 3 3 2 2 4 6 7 7 7 7 7 6 6 7 7 8 8 8 8 8 8 9 9 9 10 10 10 10 11
3 5 5 3 4 6 4 1 1 0 2 2 2 1 1 1 1 1 1 2 3 3 2 2 4 6 6 6 7 7 7 6 6 6 6 7 8 8 8 8 8 8 8 8 8 9 9 10 10
4 4 3 1 6 5 2 2 1 1 1 2 1 1 1 3 3 2 2 3 3 2 2 2 4 5 6 6 6 6 6 6 6 6 6 7 7 7 8 8 8 8 8 8 8 8 9 9 9
4 4 3 5 7 4 2 1 0 0 1 1 1 1 1 2 3 2 2 2 2 2 2 2 3 4 5 5 6 5 5 5 5 6 6 6 7 7 7 8 7 7 7 7 7 8 8 8 9
4 3 3 4 4 4 2 0 1 1 1 2 2 2 1 2 2 2 3 3 3 3 3 2 2 2 4 4 5 5 4 4 5 5 6 6 7 7 7 6 6 7 7 7 7 7 7 7 8
3 4 2 3 4 5 1 0 1 1 2 1 1 2 2 3 2 3 4 4 3 3 3 2 2 2 2 2 3 4 4 4 4 5 5 6 6 6 6 5 5 6 6 6 6 7 6 7 7
3 3 4 5 5 3 0 0 1 1 1 1 1 0 2 2 2 4 3 3 3 3 2 2 2 1 1 2 2 3 3 3 4 3 5 5 3 3 3 4 5 5 5 5 6 6 6 6 6
3 3 6 3 2 1 1 0 1 1 1 1 2 2 3 3 3 3 1 1 0 0 1 1 1 1 1 1 2 1 2 2 2 2 3 2 3 2 3 4 5 5 5 5 6 6 6 5 3
2 3 2 1 0 0 1 2 2 1 2 3 2 2 1 2 2 1 1 1 1 1 0 1 1 1 1 1 1 1 1 1 2 2 2 2 2 2 2 2 2 3 4 3 4 4 2 2 3
2 2 1 1 1 0 1 1 1 2 4 2 2 1 1 2 1 1 2 1 1 1 1 2 1 1 1 1 1 1 1 1 1 2 2 2 2 2 2 2 2 2 1 2 2 2 2 3 3
1 1 1 1 1 0 0 2 2 4 4 2 1 2 2 1 1 1 1 2 2 2 2 2 1 1 1 1 1 1 1 1 2 2 2 3 2 2 2 2 2 1 1 2 2 2 3 3 2
1 1 2 2 1 1 2 3 1 5 2 1 1 0 0 1 1 1 2 1 1 1 1 2 1 1 1 1 1 1 1 1 1 2 2 2 2 2 2 2 2 1 1 1 2 2 3 2 2
1 1 3 2 1 1 0 4 5 5 1 1 2 2 1 2 1 1 1 1 1 1 1 2 1 1 1 1 1 1 1 1 1 1 2 2 2 3 3 2 2 1 1 2 2 2 2 2 2
2 2 3 3 1 1 1 7 5 2 2 3 3 3 3 3 2 2 2 2 1 1 1 1 1 1 1 0 1 1 1 1 1 1 1 2 2 3 3 2 2 2 2 2 2 2 2 2 1
2 1 3 4 1 0 2 7 5 1 2 4 4 3 3 4 3 2 2 1 1 1 1 1 2 1 1 0 1 1 1 1 1 1 1 1 1 2 2 2 2 3 2 2 2 1 2 2 1
3 2 3 4 2 1 3 8 7 2 3 5 5 4 4 4 5 3 2 1 1 2 2 1 2 2 2 1 2 1 1 1 1 1 1 1 1 1 1 2 3 3 2 2 2 2 1 2 2
2 3 5 5 2 2 6 9 9 5 3 5 5 4 5 6 4 2 1 1 2 2 2 1 2 2 1 1 1 0 0 0 0 0 1 1 1 1 1 1 2 3 3 3 3 3 2 1 2
3 4 5 5 2 3 5 10 8 6 6 6 6 6 6 4 2 2 2 1 1 1 1 1 1 1 0 1 0 0 0 0 0 0 0 1 1 1 1 2 2 3 3 3 3 3 2 1 1
4 5 6 5 4 2 4 9 6 5 4 4 4 5 4 4 4 3 1 1 1 1 1 1 1 1 0 1 2 2 2 1 1 1 1 1 1 1 1 2 2 2 3 4 5 4 4 3 1
6 4 4 4 3 4 1 7 6 4 4 4 5 4 4 4 3 2 2 1 2 2 1 1 1 1 1 1 1 2 1 0 1 1 1 1 1 1 1 1 2 2 2 3 4 4 3 4 3
4 2 2 3 4 4 2 5 8 2 4 5 5 4 4 4 3 3 3 2 2 1 1 0 1 1 1 1 1 1 0 0 1 1 0 1 1 1 1 2 2 2 2 2 2 3 3 3 3
2 1 1 1 1 5 6 6 9 4 5 4 3 3 3 3 2 2 1 1 1 1 1 1 1 1 1 1 1 1 1 0 0 1 1 1 1 1 1 1 2 2 2 2 2 2 4 4 4
1 2 2 3 2 7 3 6 10 5 3 3 3 3 3 1 1 1 1 1 1 1 1 1 1 1 1 1 1 0 1 1 1 1 1 1 1 1 2 1 1 2 2 2 2 2 2 3 4
3 4 5 5 5 5 3 8 7 3 2 1 2 2 2 2 1 2 2 2 1 1 1 0 0 1 1 1 1 1 1 0 1 1 1 1 1 2 1 1 1 1 1 1 2 2 2 2 3
2 3 2 2 1 3 6 6 7 2 2 2 3 3 3 3 2 2 2 1 1 1 1 1 1 1 1 1 1 2 1 1 1 1 0 1 1 2 1 1 1 1 1 1 2 2 2 2 2
2 3 2 3 2 5 6 5 5 4 4 3 3 3 3 3 3 2 2 2 1 1 1 1 0 1 1 1 1 1 2 2 1 1 1 1 1 1 1 1 1 1 1 1 1 1 1 1 1
2 2 2 2 3 4 5 8 4 4 3 3 4 3 3 3 2 2 2 2 1 1 1 1 1 1 1 1 1 2 2 2 1 1 1 1 1 1 1 2 1 1 1 1 1 2 2 2 2
3 4 5 4 5 4 5 9 1 2 2 2 3 3 3 2 2 2 2 2 2 2 2 1 1 1 1 1 1 1 2 2 1 2 2 2 1 1 2 2 1 1 2 2 2 2 2 2 3
Wind_Direction
343 1 62 57 55 53 243 249 219 233 248 230 94 112 136 145 153 189 305 40 75 121 152 168 149 141 135 130 125 121 118 117 116 116 117 118 116 114 114 110 108 104 102 101 99 96 96 96 93
333 20 57 63 97 187 257 244 226 223 208 84 57 77 87 122 16 39 354 356 93 114 120 143 144 143 137 134 131 126 122 121 121 121 118 117 116 113 112 111 109 106 105 104 101 98 98 98 98
13 49 82 84 145 194 222 225 218 254 20 98 73 45 105 317 325 276 282 133 102 107 101 123 128 138 138 136 136 132 128 125 126 125 121 120 118 114 111 110 107 106 105 104 103 100 100 101 100
71 51 60 91 216 223 223 243 207 348 19 35 102 46 5 354 308 287 57 112 109 105 94 119 127 133 133 136 138 137 135 133 131 128 124 121 118 113 110 107 108 107 104 102 101 101 100 102 102
60 81 85 228 241 246 254 280 322 59 11 352 94 110 316 347 8 51 85 109 121 108 91 111 123 131 132 134 136 136 138 138 135 133 129 122 118 114 111 109 108 110 105 102 101 103 102 104 104
64 76 129 225 241 251 262 285 198 299 276 354 109 152 261 352 18 29 79 95 100 97 80 89 114 128 131 134 135 132 133 132 132 129 124 121 118 114 113 113 112 110 107 106 105 101 102 104 107
113 117 188 216 241 257 253 188 169 228 257 267 178 154 279 334 355 42 64 71 72 69 67 60 87 114 125 132 134 133 129 129 130 130 125 117 113 112 108 106 113 113 115 113 108 100 101 104 107
123 117 190 224 226 250 284 69 171 195 240 289 140 163 256 301 15 67 64 61 61 59 54 51 64 88 106 122 127 125 122 122 122 123 121 117 115 112 108 104 110 110 110 114 110 103 102 104 105
94 97 214 219 209 232 304 129 340 15 79 11 8 60 321 2 73 75 55 40 39 41 34 45 63 77 92 107 104 116 118 114 110 114 114 113 106 106 107 106 109 113 110 111 108 106 101 97 98
97 177 226 232 204 194 341 268 294 33 3 327 338 356 19 50 83 102 112 159 192 307 344 22 72 97 94 92 99 100 90 94 96 101 111 108 100 95 92 103 101 97 97 101 100 95 89 83 88
115 193 224 279 266 32 317 323 321 173 260 247 249 291 29 68 71 116 190 214 232 232 284 2 15 74 106 105 102 89 85 89 91 97 100 102 98 91 80 81 80 79 79 76 80 76 71 92 102
106 317 303 308 325 358 254 270 311 235 239 269 246 184 117 118 145 221 234 260 332 13 345 6 15 57 90 101 120 121 112 111 108 112 117 114 111 104 102 95 84 81 83 88 81 83 76 87 101
197 290 352 337 24 280 271 244 245 273 283 316 37 81 94 144 247 304 349 22 26 16 352 345 18 56 119 109 108 115 130 134 133 128 135 131 132 130 123 117 104 97 94 105 107 101 90 86 84
194 286 293 308 294 283 239 268 248 270 288 324 32 164 228 253 295 355 14 10 359 346 351 350 5 17 97 140 147 145 143 134 133 136 141 137 137 140 136 133 123 114 112 116 121 121 109 98 96
76 15 330 301 246 245 213 295 243 258 216 253 257 243 274 294 325 311 304 318 309 310 343 348 358 26 63 133 164 144 148 137 134 142 146 141 142 151 151 147 148 146 128 115 105 103 100 96 87
43 39 301 294 261 267 157 262 266 251 183 249 263 258 266 285 290 298 318 326 336 357 2 347 3 13 15 63 142 154 146 141 140 141 139 138 147 157 155 155 165 158 141 132 127 125 112 108 99
30 273 266 293 283 213 185 256 273 242 195 250 262 259 261 282 295 295 304 318 341 5 20 12 357 351 329 30 91 108 128 134 132 122 122 133 130 153 160 163 165 157 147 148 145 141 140 138 129
227 229 261 266 297 235 243 260 278 263 219 249 262 264 260 259 266 284 303 328 5 19 30 25 13 8 11 47 63 74 79 90 89 102 110 125 135 137 151 161 161 158 151 152 150 149 142 146 146
198 221 258 266 270 262 251 265 273 271 250 257 261 260 253 253 271 299 314 360 23 25 23 13 15 8 39 53 74 118 158 43 75 79 108 138 140 149 150 166 169 169 171 174 170 156 152 145 130
241 253 268 285 292 261 273 273 268 251 238 234 240 247 248 261 302 314 331 356 1 341 344 354 341 342 52 10 19 123 112 140 113 59 110 144 147 152 168 177 181 184 176 168 168 157 157 166 156
256 240 250 267 314 296 301 291 263 255 241 246 241 242 242 231 240 258 274 286 294 287 284 287 299 339 27 42 53 52 53 58 52 13 359 348 206 167 168 186 176 185 188 186 183 178 167 172 191
254 248 250 258 275 277 240 285 276 257 268 259 255 248 246 244 233 235 239 275 276 269 284 292 317 3 26 77 102 102 117 318 267 259 264 297 263 201 199 194 184 186 192 197 196 188 178 168 182
244 276 235 241 238 270 237 250 279 277 271 265 256 249 252 247 236 234 233 239 274 296 298 316 23 17 26 70 109 133 119 341 338 349 325 283 289 266 226 211 200 197 199 208 214 200 190 188 184
223 352 12 22 157 259 225 214 272 231 237 261 270 264 268 265 262 273 295 328 339 353 3 24 48 19 19 51 90 132 175 111 27 336 300 292 305 297 284 245 224 216 215 215 221 221 208 202 195
112 102 11 340 299 251 215 216 251 244 241 232 265 288 293 295 279 297 323 326 318 334 343 11 59 14 7 13 16 279 232 204 213 247 267 295 301 297 272 282 264 247 234 230 221 211 225 209 201
211 173 178 214 237 273 253 234 251 251 260 284 289 303 329 325 300 287 270 261 269 287 324 358 327 330 344 349 335 332 338 274 264 274 268 263 278 286 286 285 284 292 261 236 220 207 215 219 213
175 211 203 178 257 271 259 273 291 261 304 324 331 343 328 309 300 289 285 267 255 247 241 238 251 316 330 328 338 350 350 335 316 316 303 292 328 329 321 289 280 280 267 230 214 216 212 201 221
188 164 122 157 205 260 274 257 252 265 279 308 325 318 311 315 318 319 314 297 283 275 284 305 285 275 338 360 351 347 340 331 328 332 327 314 324 327 315 308 285 272 271 246 213 225 216 188 218
161 166 174 184 198 209 267 266 229 220 238 259 275 286 292 306 312 321 332 334 329 351 352 342 357 3 7 8 356 350 342 343 343 324 310 307 309 300 287 276 270 264 258 247 213 223 213 204 213
193 195 172 191 241 226 246 268 237 191 245 266 290 306 312 309 314 327 338 358 6 359 348 335 344 344 335 348 353 333 333 346 350 333 324 316 297 286 274 268 267 266 258 244 227 227 218 208 211